RADUGA 13 1 14307U 83088A 21016.35730380 -.00000169 00000-0 00000-0 0 9998 2 14307 13.2436 328.5930 0018851 25.2247 210.5999 0.98174822 99522 SL-12 R/B(2) 1 14333U 83088F 21016.27054066 -.00000148 00000-0 00000-0 0 9995 2 14333 13.5215 329.2443 0017078 88.4402 284.0986 0.97615371 97023